Location: Gleizolles
(44.4833°N, 6.7667°E)
Time: 13:33:06
(UTC+00:00)

deb Explorer IX - Pass Details

Date: 01 July 2024
Orbit: 510 x 878 km, 38.7° (Epoch: 21 July)

Event Time Altitude Azimuth Distance (km) Brightness Sun altitude
Rises 09:34:54 0° 262° (W) 2,773 ? 57.1°
Reaches altitude 10° 09:38:52 10° 225° (SW) 1,963 ? 57.7°
Maximum altitude 09:40:03 11° 210° (SSW) 1,931 ? 57.9°
Drops below altitude 10° 09:41:19 10° 194° (SSW) 2,026 ? 58.1°
Sets 09:45:37 0° 159° (SSE) 3,046 ? 58.8°
